[[{"header":{"parameterUnit":"m.s-1","parameterCategory":1,"la1":30.2991,"la2":30.254,"lo1":-89.0895,"lo2":-89.0444,"dy":0.0017,"dx":0.0017,"nx":28,"ny":28,"refTime":"2024-08-31T09:00:00:Z","depth":0,"parameterNumber":2,"parameterNumberName":"U-component_of_WINDS"},"data":[0,0,0,0,0,0,0,0,0,0,0,0,0,0,0,0,0,0,0,0,0,0,0,0,0,0,0,0,0,0,0,0,0,0,0,0,0,0,0,0,0,0,0,0,0,0,0,0,0,0,0,0,0,0,0,0,0,0,-3.5624,-3.5625,0,-3.5669,-3.5669,-3.567,-3.5635,-3.5634,-3.5632,-3.5631,-3.5673,-3.5675,-3.5678,0,0,0,0,0,0,0,0,0,0,0,0,0,-3.5505,-3.5507,-3.5624,-3.5625,-3.5625,-3.5669,-3.5669,-3.567,-3.5635,-3.5634,-3.5632,-3.563,-3.5672,-3.5675,-3.5678,0,0,0,0,0,0,0,0,0,0,0,0,0,-3.5554,-3.5508,-3.5624,-3.5613,-3.5613,-3.5669,-3.5669,-3.567,-3.5636,-3.5634,-3.5631,-3.5629,-3.5671,-3.5674,-3.5678,-3.5746,0,0,-3.569,-3.5691,0,0,0,0,0,0,0,0,-3.5551,-3.5558,-3.5614,-3.5614,-3.5614,-3.5644,-3.5643,-3.5695,-3.5636,-3.5627,-3.5631,-3.5628,-3.5665,-3.5669,-3.5682,-3.5748,-3.5749,-3.569,-3.5692,-3.5694,-3.5695,0,0,0,0,0,0,0,-3.5548,-3.5556,-3.5642,-3.5615,-3.5615,-3.5605,-3.561,-3.5653,-3.5658,-3.5628,-3.5625,-3.5631,-3.5664,-3.5678,-3.5683,-3.575,-3.569,-3.5693,-3.5695,-3.5697,-3.5872,-3.5874,0,0,0,0,0,0,-3.5546,-3.5554,-3.564,-3.5643,-3.5577,-3.5609,-3.5614,-3.5637,-3.5657,-3.5658,-3.5633,-3.5629,-3.5673,-3.5678,-3.5684,-3.5763,-3.5694,-3.5697,-3.5699,-3.5869,-3.5872,-3.5875,0,0,0,0,0,0,-3.5544,-3.5554,-3.5639,-3.5598,-3.5608,-3.5614,-3.5639,-3.5639,-3.5653,-3.5661,-3.5662,-3.5647,-3.5672,-3.5679,-3.573,-3.5764,-3.5699,-3.5702,-3.5866,-3.587,-3.5873,-3.5922,0,0,0,0,0,0,-3.554,-3.5554,-3.558,-3.5599,-3.561,-3.5686,-3.5641,-3.5641,-3.566,-3.5656,-3.5674,-3.5675,-3.567,-3.5725,-3.5734,-3.5768,-3.5705,-3.5863,-3.5868,-3.5872,-3.5917,-3.5927,-3.5935,0,0,0,0,0,-3.5536,-3.5592,-3.5582,-3.5592,-3.5644,-3.5688,-3.5694,-3.5688,-3.5663,-3.5689,-3.5694,-3.5675,-3.5759,-3.5731,-3.5741,-3.5776,-3.5861,-3.5867,-3.5872,-3.5913,-3.5925,-3.5935,0,0,0,0,0,0,-3.5575,-3.5594,-3.5583,-3.5646,-3.5666,-3.5682,-3.5714,-3.5701,-3.5727,-3.5722,-3.5712,-3.5717,-3.5771,-3.5779,-3.5747,-3.5841,-3.5806,-3.5814,-3.5834,-3.5845,-3.5854,-3.5849,-3.5708,0,0,0,0,0,-3.5592,-3.5627,-3.5641,-3.5695,-3.5706,-3.5709,-3.5727,-3.5722,-3.5741,-3.5748,-3.5757,-3.5776,-3.5806,-3.5826,-3.5855,-3.5919,-3.5921,-3.5948,-3.5957,-3.5964,-3.597,-3.6002,-3.6014,-3.5892,-3.5892,-3.5892,0,0,-3.5625,-3.5639,-3.5662,-3.5703,-3.5718,-3.5753,-3.5716,-3.5755,-3.578,-3.5754,-3.5803,-3.5811,-3.583,-3.5888,-3.5914,-3.5896,-3.6004,-3.5971,-3.5977,-3.5978,-3.6009,-3.6021,-3.6031,-3.5896,-3.5895,-3.5895,0,0,-3.5703,-3.5719,-3.5765,-3.5781,-3.5803,-3.5805,-3.5816,-3.5834,-3.5838,-3.5888,-3.5869,-3.5899,-3.5952,-3.5966,-3.5981,-3.6065,-3.6047,-3.6075,-3.6119,-3.6151,-3.616,-3.6169,-3.6197,-3.6207,-3.6081,-3.6081,-3.6081,0,-3.5741,-3.5795,-3.579,-3.5831,-3.5848,-3.5828,-3.5873,-3.5889,-3.5919,-3.5931,-3.5912,-3.5977,-3.599,-3.6049,-3.607,-3.6083,-3.6094,-3.6071,-3.616,-3.6168,-3.6176,-3.6202,-3.6213,-3.6084,-3.6084,-3.6083,-3.6083,0,-3.5839,-3.5877,-3.5911,-3.5942,-3.5964,-3.6007,-3.6007,-3.603,-3.6023,-3.6026,-3.6076,-3.609,-3.612,-3.6135,-3.6127,-3.6193,-3.6181,-3.6161,-3.6125,-3.619,-3.6215,-3.6225,-3.6088,-3.6087,-3.6086,-3.6086,0,0,-3.5941,-3.597,-3.5982,-3.5996,-3.6019,-3.6047,-3.6089,-3.612,-3.6139,-3.6161,-3.6194,-3.624,-3.6221,-3.6238,-3.6232,-3.626,-3.6323,-3.6236,-3.6236,-3.625,-3.6395,-3.6408,-3.642,-3.6313,-3.6315,-3.6317,-3.6392,0,-3.6019,-3.6092,-3.6089,-3.6157,-3.619,-3.6172,-3.6208,-3.6225,-3.623,-3.6258,-3.6262,-3.6294,-3.6268,-3.6278,-3.6305,-3.631,-3.6352,-3.6305,-3.6342,-3.6343,-3.6335,-3.6433,-3.6447,-3.6518,-3.6402,-3.6404,-3.6405,0,-3.6119,-3.6145,-3.6216,-3.6234,-3.6248,-3.6281,-3.6308,-3.6336,-3.6355,-3.6356,-3.6375,-3.6365,-3.6405,-3.637,-3.6425,-3.6393,-3.6408,-3.6413,-3.6415,-3.6416,-3.6376,-3.6434,-3.654,-3.655,-3.642,-3.6419,-3.6418,0,-3.6183,-3.6236,-3.6285,-3.6298,-3.6321,-3.6344,-3.6354,-3.6372,-3.639,-3.6414,-3.6426,-3.6454,-3.6469,-3.6491,-3.6487,-3.6463,-3.6542,-3.6507,-3.6542,-3.6542,-3.6558,-3.6556,-3.6665,-3.6572,-3.6572,-3.6572,-3.6572,0,-3.6268,-3.6312,-3.6315,-3.6344,-3.6392,-3.6389,-3.6436,-3.6444,-3.6459,-3.6489,-3.6476,-3.6504,-3.6499,-3.6527,-3.6526,-3.657,-3.6577,-3.6578,-3.6576,-3.6577,-3.6577,-3.6585,-3.6579,-3.6575,-3.6574,-3.6573,-3.6573,0,-3.6347,-3.6351,-3.6403,-3.6421,-3.6427,-3.6461,-3.6475,-3.6503,-3.6507,-3.6545,-3.6554,-3.6559,-3.6591,-3.6591,-3.6628,-3.6626,-3.668,-3.6674,-3.6673,-3.6671,-3.6705,-3.6701,-3.6821,-3.6836,-3.6736,-3.6737,-3.6738,0,-3.64,-3.6433,-3.6455,-3.6475,-3.6487,-3.6519,-3.6538,-3.6535,-3.6555,-3.658,-3.6604,-3.6636,-3.666,-3.6712,-3.6718,-3.6746,-3.6739,-3.6779,-3.6743,-3.6743,-3.6737,-3.6734,-3.6736,-3.6785,-3.6787,-3.6787,-3.6788,0,-3.6493,-3.6493,-3.6522,-3.6551,-3.6574,-3.6597,-3.6618,-3.6634,-3.6634,-3.6657,-3.6691,-3.671,-3.6748,-3.6778,-3.6805,-3.6814,-3.68,-3.68,-3.6809,-3.6809,-3.6807,-3.6806,-3.669,-3.6797,-3.6796,-3.6795,-3.6795,-3.6794,-3.6558,-3.6586,-3.6606,-3.6638,-3.6654,-3.6674,-3.67,-3.6708,-3.6736,-3.6767,-3.6764,-3.68,-3.6818,-3.6853,-3.6864,-3.6892,-3.6878,-3.6892,-3.6894,-3.6897,-3.69,-3.6805,-3.6897,-3.6897,-3.6897,-3.6897,-3.6896,0,-3.6648,-3.666,-3.669,-3.672,-3.6744,-3.6732,-3.6754,-3.6775,-3.6808,-3.6827,-3.6851,-3.6889,-3.6918,-3.6928,-3.6956,-3.6976,-3.697,-3.6983,-3.698,-3.6982,-3.6912,-3.69,-3.6987,-3.6987,-3.6987,-3.6987,-3.6987,-3.6987,-3.6697,-3.6743,-3.6746,-3.68,-3.6811,-3.6847,-3.6861,-3.6879,-3.6893,-3.6936,-3.6961,-3.6967,-3.6982,-3.7011,-3.7037,-3.7039,-3.7048,-3.7063,-3.7062,-3.6996,-3.6987,-3.6978,-3.6967,-3.7066,-3.7066,-3.713,-3.713,-3.7131]},{"header":{"parameterUnit":"m.s-1","parameterCategory":1,"la1":30.2991,"la2":30.254,"lo1":-89.0895,"lo2":-89.0444,"dy":0.0017,"dx":0.0017,"nx":28,"ny":28,"refTime":"2024-08-31T09:00:00:Z","depth":0,"parameterNumber":3,"parameterNumberName":"V-component_of_WINDS"},"data":[0,0,0,0,0,0,0,0,0,0,0,0,0,0,0,0,0,0,0,0,0,0,0,0,0,0,0,0,0,0,0,0,0,0,0,0,0,0,0,0,0,0,0,0,0,0,0,0,0,0,0,0,0,0,0,0,0,0,0.4475,0.4475,0,0.448,0.448,0.448,0.4418,0.4416,0.4415,0.4413,0.4421,0.4422,0.4424,0,0,0,0,0,0,0,0,0,0,0,0,0,0.4417,0.4418,0.4475,0.4475,0.4475,0.448,0.448,0.448,0.4418,0.4416,0.4414,0.4412,0.442,0.4422,0.4424,0,0,0,0,0,0,0,0,0,0,0,0,0,0.4434,0.4419,0.4475,0.4445,0.4442,0.448,0.448,0.448,0.4419,0.4416,0.4414,0.4411,0.4419,0.4422,0.4425,0.4492,0,0,0.4433,0.4434,0,0,0,0,0,0,0,0,0.4433,0.4436,0.4449,0.4447,0.4444,0.4446,0.4462,0.4484,0.442,0.4428,0.4413,0.441,0.4431,0.4433,0.4439,0.4492,0.4492,0.4433,0.4435,0.4436,0.4436,0,0,0,0,0,0,0,0.4432,0.4436,0.4477,0.445,0.4447,0.4433,0.4432,0.4466,0.4444,0.4427,0.4423,0.4424,0.4429,0.4437,0.4439,0.4492,0.4433,0.4435,0.4437,0.4438,0.4603,0.4606,0,0,0,0,0,0,0.4434,0.4435,0.4477,0.4477,0.4432,0.4436,0.4435,0.4448,0.4443,0.444,0.4426,0.4421,0.4434,0.4436,0.4439,0.4519,0.4436,0.4438,0.444,0.46,0.4604,0.4607,0,0,0,0,0,0,0.4433,0.4439,0.4477,0.4455,0.4459,0.4439,0.4454,0.4449,0.4457,0.4442,0.4439,0.4437,0.4432,0.4435,0.4479,0.4518,0.4439,0.4442,0.4597,0.4601,0.4605,0.4678,0,0,0,0,0,0,0.4432,0.4439,0.4463,0.4456,0.446,0.4516,0.4456,0.4451,0.4461,0.4455,0.4452,0.4449,0.443,0.4476,0.4482,0.452,0.4444,0.4594,0.4599,0.4604,0.4672,0.4684,0.4694,0,0,0,0,0,0.443,0.4483,0.4464,0.447,0.449,0.4518,0.4521,0.4496,0.4464,0.4489,0.4481,0.4449,0.4513,0.4481,0.4487,0.4527,0.4591,0.4597,0.4604,0.4667,0.4682,0.4694,0,0,0,0,0,0,0.4495,0.4482,0.4461,0.4513,0.4517,0.4508,0.4538,0.4513,0.4527,0.452,0.449,0.449,0.454,0.4538,0.4502,0.4593,0.4546,0.4554,0.4592,0.4606,0.4617,0.4617,0.4446,0,0,0,0,0,0.4516,0.4539,0.4526,0.4574,0.4577,0.4558,0.4569,0.455,0.4554,0.4555,0.455,0.4555,0.4577,0.4591,0.461,0.4671,0.4671,0.4702,0.4713,0.4723,0.473,0.4764,0.4778,0.4627,0.4627,0.4627,0,0,0.4558,0.4554,0.457,0.4587,0.4588,0.4614,0.4559,0.4589,0.4608,0.456,0.4601,0.4598,0.4602,0.4656,0.4679,0.4656,0.4772,0.4731,0.4738,0.474,0.4772,0.4787,0.4799,0.4632,0.4631,0.463,0,0,0.4649,0.4648,0.4688,0.469,0.4693,0.468,0.469,0.4685,0.468,0.4721,0.4686,0.471,0.4747,0.4752,0.4759,0.4855,0.4828,0.4862,0.4921,0.4955,0.4966,0.4977,0.5012,0.5025,0.4869,0.487,0.487,0,0.4702,0.4739,0.4712,0.4744,0.4753,0.4711,0.4752,0.4756,0.4765,0.4773,0.4746,0.4793,0.4793,0.4848,0.4872,0.4879,0.4891,0.4862,0.4967,0.4977,0.4986,0.502,0.5033,0.4874,0.4873,0.4873,0.4872,0,0.4804,0.4831,0.4863,0.4873,0.4885,0.4922,0.4902,0.4919,0.49,0.489,0.4934,0.4932,0.4951,0.4963,0.4944,0.5016,0.5002,0.4972,0.4924,0.5005,0.5037,0.5049,0.488,0.4878,0.4877,0.4876,0,0,0.4935,0.493,0.4943,0.4948,0.4948,0.4969,0.5005,0.5022,0.5038,0.5046,0.5077,0.511,0.5083,0.5091,0.5073,0.5103,0.5181,0.5069,0.5069,0.5091,0.5262,0.5286,0.5301,0.5163,0.5165,0.5167,0.5262,0,0.5024,0.5084,0.5062,0.5124,0.5149,0.5111,0.5142,0.5147,0.514,0.5161,0.5154,0.5178,0.5139,0.5145,0.5172,0.5166,0.5215,0.5158,0.5192,0.5194,0.5193,0.5317,0.5341,0.5431,0.5274,0.5276,0.5278,0,0.5136,0.5149,0.5213,0.5212,0.5221,0.525,0.5266,0.5286,0.5292,0.5285,0.5296,0.5272,0.5309,0.5262,0.5314,0.5276,0.5289,0.5288,0.5291,0.5293,0.5241,0.5324,0.5458,0.5472,0.5296,0.5295,0.5294,0,0.5226,0.526,0.5303,0.5308,0.5307,0.5328,0.5329,0.5332,0.5345,0.5359,0.5368,0.5386,0.5397,0.5413,0.5396,0.5363,0.5451,0.5402,0.5447,0.5448,0.5467,0.5466,0.5607,0.5475,0.5475,0.5474,0.5474,0,0.5328,0.537,0.5344,0.5371,0.5417,0.5392,0.5439,0.5435,0.5439,0.5465,0.5433,0.546,0.5435,0.5459,0.5446,0.5492,0.5497,0.5493,0.549,0.5497,0.5497,0.5505,0.5498,0.5478,0.5477,0.5476,0.5476,0,0.5436,0.5421,0.5466,0.5462,0.5462,0.5496,0.5493,0.5518,0.551,0.5544,0.5551,0.5537,0.5565,0.5549,0.5577,0.5569,0.5629,0.5616,0.5627,0.5623,0.567,0.5666,0.5821,0.5841,0.5695,0.5697,0.5698,0,0.5503,0.5534,0.5533,0.5549,0.5551,0.5576,0.559,0.5567,0.5583,0.5593,0.5618,0.5642,0.5661,0.5707,0.57,0.5722,0.571,0.5763,0.5713,0.572,0.5713,0.5711,0.5715,0.5773,0.5775,0.5776,0.5777,0,0.5623,0.5614,0.5633,0.5652,0.5668,0.5681,0.5692,0.5707,0.5685,0.5704,0.5731,0.5746,0.5775,0.58,0.582,0.5822,0.5797,0.5793,0.5805,0.5813,0.5818,0.5817,0.5655,0.579,0.5789,0.5788,0.5787,0.5786,0.5712,0.5739,0.5743,0.5767,0.5773,0.5784,0.5808,0.5803,0.5825,0.5847,0.5833,0.5866,0.5873,0.5896,0.5902,0.5929,0.5908,0.5924,0.5929,0.5934,0.5941,0.5814,0.5932,0.5932,0.5931,0.5931,0.5931,0,0.5831,0.5833,0.5855,0.5871,0.5891,0.5865,0.5876,0.5894,0.5923,0.5932,0.5951,0.5984,0.6009,0.6005,0.6029,0.6051,0.604,0.6058,0.6056,0.6058,0.5957,0.5945,0.6066,0.6066,0.6066,0.6066,0.6066,0.6066,0.5896,0.594,0.5932,0.598,0.5981,0.6012,0.6021,0.6032,0.6039,0.6077,0.6098,0.6095,0.6099,0.6123,0.6146,0.6144,0.6155,0.6177,0.6172,0.6078,0.6065,0.6052,0.604,0.618,0.618,0.627,0.6271,0.6272]}]]